RH
41 15 18 15 17 16 14 11 7 9 9 7 6 7 57 72 74 82 70 73 79 90 70 72 92 90 86 90 89 88 89 90 90 90 89 88 87 86 85 84 86 84 83 84 79 76 75 76 85
23 14 9 10 16 15 13 7 9 10 8 6 6 9 51 82 72 77 78 76 79 88 65 73 92 91 90 91 90 88 88 89 89 88 88 87 86 82 82 85 87 84 80 78 80 78 75 82 91
29 14 14 12 11 11 8 9 9 7 6 6 13 55 66 78 65 78 74 82 78 80 81 80 92 92 90 91 91 86 89 91 88 86 85 83 83 80 81 84 87 84 81 79 81 75 80 91 91
10 10 10 10 9 6 6 8 7 6 6 13 25 73 66 46 64 70 75 77 80 86 78 74 87 85 89 90 88 84 90 90 88 84 84 80 79 80 81 83 87 84 83 80 79 81 91 92 92
8 9 10 9 5 6 6 7 6 7 16 18 31 52 46 38 49 66 73 76 87 84 80 68 81 80 84 85 86 88 90 90 89 85 83 81 80 80 82 85 88 87 85 83 84 91 92 91 89
12 7 9 7 5 7 10 8 7 14 17 21 25 38 32 32 46 60 62 66 79 89 86 72 69 74 81 84 81 86 90 91 90 87 84 81 80 81 82 85 91 88 83 86 91 92 90 89 86
10 9 9 6 6 8 10 7 11 18 20 24 22 33 27 24 41 57 57 60 64 71 80 81 68 67 74 78 83 87 87 91 92 90 85 83 84 86 86 87 92 93 89 87 92 92 90 87 83
7 9 7 5 6 14 9 8 14 17 23 18 20 31 30 24 33 36 42 45 57 62 60 66 73 66 66 68 80 84 89 90 91 91 89 87 89 90 89 92 91 91 92 86 92 92 89 86 82
6 12 11 11 10 13 11 14 13 16 21 20 21 23 22 20 22 29 35 35 45 57 52 58 59 64 69 64 73 73 84 89 91 91 90 90 83 86 90 92 94 93 93 92 92 92 90 86 82
6 9 12 9 9 9 14 17 16 17 22 22 21 19 19 19 23 27 30 32 35 54 56 50 60 59 66 58 70 73 80 83 81 76 85 85 87 89 90 94 96 96 94 95 94 92 90 80 72
7 9 8 11 12 7 15 20 18 20 26 22 23 20 19 20 22 25 25 26 28 39 53 48 56 71 76 76 70 71 74 92 91 81 85 88 92 92 96 98 98 98 97 97 93 90 73 68 66
7 7 9 9 10 12 14 16 22 22 21 18 18 18 19 20 21 24 25 24 26 31 38 42 42 56 66 76 91 84 78 87 92 88 84 92 96 94 97 98 98 98 98 98 91 79 70 70 62
8 8 7 8 9 9 12 17 22 22 18 16 17 18 19 18 19 22 22 23 25 28 39 42 41 52 56 62 65 86 84 85 91 92 87 94 92 92 95 96 98 97 99 98 95 74 67 69 70
7 7 7 7 8 9 9 16 18 20 17 18 19 20 19 19 19 22 24 26 29 29 34 42 42 54 56 61 68 68 80 94 94 95 90 89 94 90 94 97 98 97 98 98 95 69 69 75 74
6 9 8 9 7 8 7 11 25 19 18 19 18 19 19 19 18 23 25 27 26 26 33 41 42 52 60 62 64 63 63 75 96 95 89 84 93 91 92 97 98 98 99 97 97 97 83 82 75
5 5 8 7 4 5 6 19 22 17 18 20 19 18 18 18 18 20 24 22 22 25 36 40 41 50 59 64 61 58 62 69 88 95 95 88 91 91 94 96 97 96 98 99 97 99 85 89 87
6 7 8 6 4 6 7 9 20 18 19 22 21 20 18 19 18 21 21 21 23 25 36 38 49 51 58 62 60 62 66 65 72 94 96 93 88 93 96 96 97 96 96 97 98 98 95 79 86
10 8 8 9 6 6 8 9 26 21 21 23 20 20 20 20 20 21 22 23 23 25 34 38 46 54 57 60 61 63 65 65 72 84 92 91 93 95 97 98 97 97 96 96 98 99 99 92 84
9 8 8 7 7 7 8 10 22 21 20 21 19 19 20 22 20 20 25 24 26 29 35 38 45 54 52 55 62 67 70 70 70 79 85 90 92 92 97 97 97 98 97 96 97 99 98 98 94
9 10 11 10 9 9 9 16 26 20 20 18 18 18 19 19 19 22 23 24 30 30 36 39 42 48 51 52 59 62 67 67 69 71 80 87 88 93 95 98 98 98 98 98 98 99 98 99 99
11 13 13 12 10 8 17 33 39 21 17 16 17 18 18 21 21 21 22 27 26 28 35 37 43 46 51 57 56 58 62 66 71 72 74 81 84 91 92 96 96 97 96 98 97 97 96 97 99
14 11 11 12 12 17 22 82 43 22 21 18 18 19 20 21 21 21 22 24 24 26 34 39 43 45 46 56 59 65 64 72 70 73 73 75 81 86 91 94 95 96 97 96 96 98 96 95 97
15 12 12 9 11 23 29 44 66 26 26 22 19 18 18 19 20 21 22 21 21 24 29 39 45 44 49 52 56 57 66 63 66 69 75 76 79 84 87 90 95 96 97 96 96 97 99 98 96
12 13 12 11 30 77 45 32 81 47 33 22 18 17 18 18 18 19 20 22 23 23 30 37 44 46 47 50 50 56 58 64 68 68 73 76 79 84 85 88 93 96 96 96 96 95 95 99 98
14 19 25 27 34 40 47 41 78 33 22 20 19 17 17 17 19 21 20 20 25 29 32 35 41 45 48 52 49 55 58 59 67 69 75 82 83 84 87 89 93 94 96 96 96 97 97 96 98
16 19 40 59 46 40 45 68 70 40 17 16 15 16 17 18 20 19 22 23 24 29 32 39 41 44 49 52 56 55 58 60 65 70 72 78 80 84 81 85 88 89 89 95 96 96 96 97 98
21 26 18 36 30 29 32 68 57 28 20 18 17 18 20 19 21 24 22 26 28 30 33 43 43 41 48 54 56 56 58 62 64 62 68 70 70 68 75 82 84 90 90 94 97 98 98 96 96
19 17 35 35 55 56 51 43 58 39 31 21 20 21 20 19 20 22 24 27 30 32 31 43 45 43 46 54 54 53 59 60 62 63 67 66 72 74 75 80 81 85 89 89 95 97 96 97 97
24 27 30 30 31 50 55 59 57 48 30 25 19 18 20 22 23 25 24 26 26 31 34 41 43 44 50 52 54 59 61 61 61 67 67 70 74 71 77 77 78 80 87 91 94 96 96 95 97
22 25 25 40 36 32 50 71 26 32 31 25 25 20 20 23 27 24 26 28 28 30 31 34 44 44 47 48 51 60 61 60 61 67 69 72 77 77 75 76 77 78 83 90 92 96 95 97 96
Wind_Speed
17 15 10 9 6 8 15 18 20 11 10 13 10 9 19 18 9 5 19 21 27 23 13 11 12 13 12 12 12 10 11 12 13 13 14 13 13 13 15 18 22 21 14 9 12 15 15 15 14
11 16 7 7 10 12 13 20 9 16 14 7 7 6 19 10 11 8 16 29 23 23 13 14 10 11 11 11 11 11 11 11 12 11 12 12 13 12 16 18 17 18 17 18 14 14 15 15 11
12 16 8 7 9 14 6 14 17 13 5 6 7 20 9 11 13 11 16 23 20 23 22 19 10 9 11 10 10 9 9 8 10 10 11 11 11 11 13 16 14 10 17 18 18 18 16 12 11
7 9 7 9 17 6 12 15 15 11 4 25 21 14 9 6 7 10 17 21 17 18 19 21 31 18 9 8 8 7 8 6 8 9 9 11 10 9 10 14 14 14 16 18 17 16 13 13 10
8 8 10 15 15 13 12 17 13 13 14 22 23 13 12 13 9 8 12 15 17 15 17 21 29 26 24 9 6 3 4 6 7 8 8 10 10 11 11 16 12 11 14 15 16 14 13 11 10
9 6 10 12 12 14 18 14 14 22 22 24 11 15 16 14 13 11 11 15 13 13 14 16 25 26 25 23 6 5 3 0 4 6 7 8 9 10 12 16 13 6 14 15 16 13 13 10 9
12 11 13 13 6 10 14 13 15 20 21 24 12 9 16 21 13 7 11 11 13 14 15 10 15 20 24 22 14 6 2 2 1 5 8 7 8 11 16 17 17 8 4 16 16 12 12 10 8
6 10 16 11 4 18 13 14 19 18 21 12 15 11 11 17 11 11 11 13 13 13 12 12 14 15 16 17 16 13 5 2 1 2 5 7 10 17 17 16 15 15 10 10 15 12 11 11 8
9 9 6 19 15 14 17 17 14 19 19 19 19 15 14 17 16 14 13 15 13 11 13 14 17 16 16 15 15 17 9 6 3 4 6 8 7 10 14 13 14 11 13 12 15 12 11 10 7
10 8 14 14 13 11 17 18 12 9 18 18 16 15 15 17 17 17 17 16 17 15 16 17 13 13 15 13 15 14 11 6 4 6 8 6 8 8 9 12 15 13 11 13 15 13 12 10 4
10 10 13 14 13 10 21 20 19 14 16 15 15 15 17 18 16 19 19 18 18 14 10 15 12 12 15 10 9 7 8 7 5 5 5 5 6 7 6 6 6 6 10 6 10 9 7 8 6
6 7 9 12 12 12 13 14 19 18 12 13 13 15 17 18 17 18 19 20 19 16 16 14 15 14 11 9 6 8 8 8 6 5 4 6 5 8 7 6 6 5 4 8 8 7 9 9 9
9 7 5 7 10 11 3 11 15 15 10 14 14 16 17 18 19 18 17 17 17 17 18 19 17 15 13 14 9 8 9 8 8 6 3 5 7 7 7 6 5 6 5 7 7 9 9 9 4
8 5 4 4 6 8 11 12 9 14 11 15 16 17 17 17 19 18 18 16 16 15 17 16 16 13 13 12 12 9 6 5 8 8 5 5 5 6 7 7 6 6 6 6 8 9 9 5 5
10 9 12 10 6 6 9 4 15 14 15 17 16 16 16 18 19 18 17 16 16 15 15 14 13 13 15 15 13 10 9 9 7 10 11 2 7 8 8 6 6 5 3 7 7 5 7 5 5
7 10 11 14 4 13 9 7 12 13 15 18 19 17 16 19 19 18 17 17 17 15 15 15 13 15 14 13 12 9 10 8 7 8 10 8 6 10 8 7 6 6 5 3 6 5 6 5 5
16 11 18 19 13 13 11 13 16 15 15 17 18 18 18 17 18 17 19 17 17 16 15 15 14 14 14 12 12 12 14 10 8 7 9 14 6 7 7 6 6 8 6 6 4 5 4 7 4
13 15 13 14 15 20 15 13 11 14 16 16 15 16 18 19 21 17 17 17 17 16 16 16 13 14 13 8 10 10 10 11 9 9 10 16 13 7 6 5 6 7 7 9 7 5 6 3 5
14 16 15 15 21 19 15 13 16 12 12 13 14 16 16 16 17 19 19 15 16 15 15 16 17 16 12 10 11 11 12 11 11 9 13 13 14 12 7 6 7 6 7 8 8 4 6 3 2
16 16 20 19 19 17 18 6 16 10 12 13 15 15 15 15 16 17 17 18 15 15 15 15 16 16 13 11 9 10 10 10 10 10 11 11 14 13 11 6 7 8 6 8 9 6 9 2 4
15 18 19 24 22 17 16 10 9 6 11 12 14 14 15 17 17 16 16 16 17 17 16 15 15 15 13 15 11 12 10 10 9 11 10 12 14 13 13 10 8 8 8 7 10 10 10 7 6
13 22 24 24 17 7 8 4 3 4 9 13 13 12 13 14 15 16 16 16 15 16 16 16 15 15 13 14 11 14 12 12 10 9 10 11 13 13 14 14 9 9 7 8 9 7 9 9 9
20 24 24 16 6 4 9 4 3 10 10 11 11 11 12 11 13 15 16 16 16 15 15 15 15 15 14 13 13 11 11 11 9 9 14 13 10 12 13 15 15 10 7 9 10 10 9 8 6
20 24 17 11 8 4 9 8 3 3 6 9 11 12 13 13 13 13 14 15 14 14 14 14 16 16 14 13 14 14 15 14 11 13 11 11 10 9 11 14 12 13 9 10 9 11 13 7 8
20 20 8 10 9 9 5 10 4 1 4 7 10 12 13 12 12 13 14 14 14 15 15 14 16 15 14 14 14 12 12 14 12 13 11 12 10 10 11 13 12 9 11 8 8 9 9 11 9
16 14 8 14 12 14 7 4 3 8 6 8 9 10 12 14 14 15 14 12 13 14 14 14 16 15 13 13 14 12 11 7 8 10 10 9 8 9 13 11 11 12 12 9 9 9 9 10 9
9 13 10 11 11 10 5 4 4 8 7 9 9 11 12 14 15 15 16 14 13 12 14 14 15 15 12 12 12 12 12 10 9 13 10 9 12 11 11 12 11 11 12 11 9 7 9 10 11
7 9 9 9 7 13 12 6 1 4 6 9 11 12 12 14 15 15 13 14 13 13 11 11 14 15 13 11 11 11 12 11 10 9 11 13 12 13 13 12 10 11 11 10 11 8 8 10 9
5 8 6 8 4 10 10 11 5 4 7 8 9 11 13 14 15 14 14 13 13 13 12 10 12 14 12 13 11 13 12 13 11 10 11 12 12 13 13 12 10 10 10 11 10 9 10 11 9
8 6 8 7 11 11 11 4 0 2 11 12 13 13 12 14 15 14 14 15 13 13 13 11 10 11 11 12 13 11 13 12 12 11 11 12 12 12 12 11 10 10 9 10 11 13 10 10 10
Wind_Direction
295 270 236 249 243 228 260 254 256 121 107 37 346 319 99 39 1 15 324 13 338 337 112 85 92 96 97 107 106 106 113 121 122 121 119 117 113 115 113 115 110 115 142 145 126 127 124 118 106
300 298 255 274 237 248 235 240 64 48 33 359 319 311 40 66 33 353 354 335 343 5 84 80 77 89 96 97 108 113 120 126 129 127 124 126 124 125 127 125 124 142 160 149 143 147 129 122 111
266 266 278 231 233 255 312 41 37 39 21 353 43 53 40 348 349 343 324 331 352 16 6 28 47 80 83 97 99 112 118 127 133 131 129 131 126 130 138 135 137 161 157 154 163 137 138 121 121
284 237 240 257 254 247 37 36 30 342 40 24 10 67 94 55 325 332 335 346 2 16 14 17 18 8 64 75 96 115 124 143 142 141 136 131 133 136 145 139 141 168 155 154 144 138 126 123 137
232 266 261 261 263 82 40 45 11 13 43 18 58 68 80 50 44 11 358 6 6 16 14 20 15 7 5 42 69 102 138 163 158 156 150 145 141 136 143 128 137 165 151 142 133 129 125 134 157
277 246 273 258 250 67 56 30 21 35 49 20 28 95 55 40 33 33 29 23 16 13 24 19 17 5 359 353 12 54 31 182 188 173 168 155 146 143 146 138 137 192 152 137 124 132 136 144 161
273 296 282 308 344 65 56 41 45 55 35 31 21 77 42 20 48 43 40 35 14 23 36 15 24 9 357 341 338 349 34 55 278 203 183 176 158 135 122 127 136 147 271 140 128 140 141 144 162
311 310 284 265 283 65 43 63 65 72 53 52 30 37 14 9 33 16 58 47 32 26 23 15 24 10 1 340 359 340 294 272 139 216 178 168 139 136 133 132 150 161 167 172 135 142 141 141 153
287 274 329 19 35 73 43 47 73 94 68 58 52 49 13 7 13 31 25 28 34 25 22 15 26 3 4 346 346 338 303 260 206 174 188 152 152 147 143 146 152 165 165 190 142 143 139 137 141
293 315 50 32 21 13 83 56 8 60 52 42 41 35 24 17 13 16 20 20 18 28 21 22 21 7 5 345 344 328 343 321 251 196 159 171 151 153 149 147 154 166 176 177 145 142 140 152 155
27 6 349 35 8 358 106 74 40 32 44 36 30 24 26 21 19 14 13 17 16 15 41 17 3 11 7 339 331 338 328 331 313 276 143 165 148 153 142 144 154 168 179 164 148 149 169 192 170
305 53 32 42 20 29 27 87 62 47 43 41 39 31 26 26 23 20 10 5 5 8 22 16 6 27 360 337 336 326 329 329 318 311 190 157 157 155 154 162 161 165 200 167 169 176 185 204 180
310 96 56 73 65 32 26 72 78 47 19 43 36 34 30 25 26 21 12 8 2 1 14 10 5 10 7 340 338 330 322 321 331 315 263 163 160 159 157 166 170 185 172 187 189 181 198 199 174
357 338 137 32 51 76 13 78 36 41 24 41 35 29 26 22 25 21 11 5 4 2 14 1 3 9 0 337 340 322 310 302 318 325 298 188 157 158 166 172 173 182 177 203 200 192 202 177 132
303 259 221 191 72 73 30 199 68 35 31 33 27 26 21 22 22 24 7 1 360 11 8 359 0 9 6 338 333 333 340 348 330 345 309 222 168 174 169 173 184 183 156 204 220 290 206 143 127
247 276 267 132 177 94 48 96 75 48 38 28 15 13 11 14 17 19 6 2 357 13 8 357 3 3 357 342 343 337 341 336 350 330 329 302 178 178 175 174 187 189 191 183 228 235 190 143 136
49 342 334 323 3 4 12 325 103 57 41 29 17 6 5 9 12 15 4 1 356 12 6 360 7 0 352 2 347 348 344 345 335 343 339 348 294 162 170 185 185 179 191 207 198 224 213 156 142
329 314 306 297 352 344 325 309 68 45 36 29 18 17 6 2 5 7 10 360 354 13 8 359 7 357 352 10 353 352 347 342 353 355 356 344 335 177 177 183 175 177 179 196 201 194 151 124 160
322 320 306 338 343 320 300 276 86 52 53 39 27 19 18 6 357 351 357 7 354 10 11 1 2 358 359 4 4 353 347 344 338 358 350 347 340 321 181 178 173 181 185 188 183 163 150 130 149
343 354 339 318 318 303 287 359 57 52 54 37 26 14 2 6 7 1 356 352 355 9 7 4 3 354 5 0 13 352 341 344 329 346 344 354 337 336 343 182 185 184 182 176 172 197 146 145 173
341 358 324 312 304 276 322 86 48 31 48 36 30 17 4 3 360 0 3 358 352 1 4 3 2 355 8 4 1 352 349 349 345 344 343 349 346 338 329 311 187 191 183 183 197 180 180 174 184
349 336 320 306 287 355 341 87 157 29 31 25 20 14 15 5 356 358 357 357 356 2 359 359 1 354 9 3 7 1 352 347 344 338 337 340 345 340 334 338 208 190 194 194 194 181 190 179 186
346 334 322 312 346 76 358 75 330 30 9 7 7 3 5 10 2 358 355 354 356 3 359 353 357 354 1 3 3 359 357 345 340 340 339 339 341 342 348 348 341 193 197 201 204 193 181 196 182
346 352 350 31 74 75 336 319 117 48 334 353 354 359 359 360 1 357 356 352 356 0 356 353 355 348 357 1 358 358 359 351 345 346 343 339 339 343 348 347 341 339 199 208 200 204 200 173 186
6 9 359 6 356 356 300 311 159 242 328 353 356 2 359 356 359 349 355 353 355 357 355 352 349 343 354 360 354 353 2 355 350 348 342 338 338 342 341 344 333 335 325 198 196 200 194 207 207
11 16 12 327 334 308 46 353 37 232 14 345 349 4 358 360 358 356 357 356 352 353 354 353 344 339 356 359 351 350 357 358 352 347 343 336 333 332 329 330 333 330 321 302 200 202 203 203 192
352 14 341 335 317 320 357 113 353 287 354 347 349 2 357 356 356 353 351 358 349 349 351 353 341 339 349 1 352 349 346 357 354 350 347 343 332 329 331 325 322 329 326 313 221 206 197 206 210
28 2 340 347 316 324 332 340 147 257 318 344 354 354 353 355 347 344 349 347 346 343 346 351 339 337 342 359 351 344 347 347 351 352 350 347 333 328 328 324 328 320 323 313 314 212 209 209 210
347 2 350 322 321 330 319 322 130 236 286 319 343 345 347 348 339 339 344 347 338 340 338 350 340 335 350 348 354 343 342 344 351 354 351 351 333 332 327 325 326 328 325 325 320 253 212 218 204
269 354 334 328 325 316 303 327 326 263 341 342 341 332 338 337 332 331 338 341 338 337 335 342 339 336 348 343 339 344 338 348 353 354 350 351 336 331 328 326 327 328 325 323 352 342 218 205 202